カタログに戻る

COSMOS 1354

運用中ナビゲーションLEO
NORAD 13148·PAYLOAD·🇷🇺 Russia

打ち上げ Apr 28, 1982 から Plesetsk Cosmodrome

Loading…

次のパス (今後24時間)

TLE

最新Source: Space-Track

元期: Sep 14, 2026, 02:36 UTC

1 13148U 82037A   26257.10836496  .00000067  00000-0  34218-4 0  9991
2 13148  74.0374 303.2694 0008066  89.9610 270.2466 14.32830012317792

AllMySatでCOSMOS 1354をリアルタイム追跡

Download on the App Store